Lexington Weather

Lexington, Massachusetts, USA

34°F
4/16/2021 10:03am 
  • Lexington Conditions: Snow, Fog, Overcast
  • Temperature: 33.8°F / 1.0°CColder 1.3°F than last hour.
  • Dew Point: 32.5°FDecreased 0.9°Fsince last hour.
  • Relative Humidity: 95%Increased 1.0% since last hour.
  • Wind: Calm, 10-min avg: Calm, gust: None
  • Barometer: 29.50 in Steady
  • Visibility: ½ mile
  • Snow Today: 1.3 in
  •   

Regional Weather Roundup
for Boston / Norton, MA

        
000
ASUS41 KBOX 120604
RWRBOX

REGIONAL WEATHER ROUNDUP
NATIONAL WEATHER SERVICE BOSTON/NORTON MA
200 AM EDT MON APR 12 2021

NOTE:  "FAIR" INDICATES FEW OR NO CLOUDS BELOW 12,000 FEET WITH NO 
SIGNIFICANT WEATHER AND/OR OBSTRUCTIONS TO VISIBILITY.

MAZALL-120700-
EASTERN MASSACHUSETTS
  
CITY           SKY/WX    TMP DP  RH WIND       PRES   REMARKS
BOSTON         CLOUDY    46  39  76 N8        29.78F                  
6HR MIN TEMP:  45; 6HR MAX TEMP:  46;                                

BEVERLY        NOT AVBL                                               
LAWRENCE       CLOUDY    42  40  92 N6        29.80F                  
BEDFORD        CLOUDY    44  39  82 NE6       29.77F                  
BLUE HILL        N/A     41  40  96 NE10      29.74F                  
NORWOOD        CLOUDY    46  40  79 NE5       29.76F                  
MARSHFIELD     CLOUDY    45  43  93 NE7       29.76F                  
PLYMOUTH       MOCLDY    43  38  82 NE7       29.75F                  
TAUNTON        CLOUDY    44  39  82 CALM      29.75F                  
NEW BEDFORD    CLOUDY    44  38  79 NE7       29.73F                  
$$

MAZALL-120700-
CAPE COD AND THE ISLANDS
  
CITY           SKY/WX    TMP DP  RH WIND       PRES   REMARKS
FALMOUTH       NOT AVBL                                               
HYANNIS        CLOUDY    45  36  70 N3        29.73F                  
CHATHAM        CLOUDY    45  37  73 NE8       29.74F                  
PROVINCETOWN   MOCLDY    43  42  97 MISG      29.77                   
NANTUCKET      CLOUDY    44  37  76 NE12      29.71F                  
MARTHAS VNYRD  CLOUDY    45  37  73 NE12      29.72F                  
$$
 
MAZALL-120700-
CENTRAL AND WESTERN MASSACHUSETTS
  
CITY           SKY/WX    TMP DP  RH WIND       PRES   REMARKS
WORCESTER      CLOUDY    42  38  85 NE7       29.74F                  
6HR MIN TEMP:  42; 6HR MAX TEMP:  45; 6HR PCP: TRACE;                

FITCHBURG      CLOUDY    44  41  89 N6        29.78F                  
ORANGE         CLOUDY    45  35  68 N3        29.77F                  
SPRINGFIELD    CLOUDY    46  40  78 N7        29.74F                  
WESTFIELD      CLOUDY    47  40  76 N6        29.74F                  
NORTH ADAMS    CLOUDY    49  30  48 E12G20    29.72F                  
PITTSFIELD     CLOUDY    45  26  47 VRB7      29.71S                  
$$
 
RIZALL-120700-
RHODE ISLAND
  
CITY           SKY/WX    TMP DP  RH WIND       PRES   REMARKS
PROVIDENCE     CLOUDY    44  40  85 NE9       29.74F                  
6HR MIN TEMP:  44; 6HR MAX TEMP:  46; 6HR PCP:  0.02;                

NEWPORT        CLOUDY    44  40  85 NE7       29.73F                  
BLOCK ISLAND   CLOUDY    43  40  89 NE14G22   29.71F                  
SMITHFIELD     MOCLDY    42  41  96 NE8       29.75F                  
WESTERLY       CLOUDY    43  39  86 NE8       29.70F                  
$$
 
CTZALL-120700-
CONNECTICUT
  
CITY           SKY/WX    TMP DP  RH WIND       PRES   REMARKS
BRADLEY INTL   CLOUDY    46  41  82 N9        29.74F                  
6HR MIN TEMP:  46; 6HR MAX TEMP:  49; 6HR PCP:  0.01;                

HARTFORD       CLOUDY    47  40  76 N8        29.74S                  
BRIDGEPORT     CLOUDY    49  43  80 NE12      29.70S                  
DANBURY        LGT RAIN  48  41  76 E7        29.71S                  
GROTON         CLOUDY    46  40  79 NE15      29.70F                  
NEW HAVEN      CLOUDY    49  42  77 NE9       29.70F                  
CHESTER        CLOUDY    46  41  81 NE7       29.71S                  
MERIDEN        CLOUDY    47  39  74 NE6       29.72F                  
WILLIMANTIC    CLOUDY    45  40  82 NE8       29.73F                  
OXFORD         LGT RAIN  44  43  96 E14G22    29.70F                  
$$

MEZ002-015-021-024-NHZ003-005-008-011-012-014-VTZ005-008-120700-
NORTHERN NEW ENGLAND
  
CITY           SKY/WX    TMP DP  RH WIND       PRES   REMARKS
PORTLAND ME    CLOUDY    40  38  93 N3        29.81F                  
6HR MIN TEMP:  37; 6HR MAX TEMP:  42;                                

BANGOR ME      CLOUDY    50  41  71 N14       29.82S                  
CONCORD NH     CLOUDY    42  36  79 CALM      29.80S                  
MANCHESTER NH  CLOUDY    44  38  79 CALM      29.78S                  
NASHUA NH      CLOUDY    43  42  97 N3        29.79F                  
PORTSMOUTH NH  MOCLDY    41  38  87 N9        29.80F                  
JAFFREY NH     CLOUDY    44  32  62 CALM      29.76F                  
KEENE NH       LGT RAIN  47  33  58 N7        29.77F                  
BURLINGTON VT  MOCLDY    54  38  54 E6        29.75R                  
MT. WASHINGTON SNOWSHWR  25  25 100 E22         N/A  VSB 0   WCI  10  
$$

NYZ052-076-120700-
EASTERN NEW YORK
  
CITY           SKY/WX    TMP DP  RH WIND       PRES   REMARKS
ALBANY         CLOUDY    48  42  80 CALM      29.73R                  
6HR MIN TEMP:  48; 6HR MAX TEMP:  53; 6HR PCP:  0.01;                

NEW YORK CITY  CLOUDY    47  44  90 NE16      29.68S FOG              
6HR MIN TEMP:  47; 6HR MAX TEMP:  50; 6HR PCP:  0.04;                

$$
 
ANZALL-120700-
MARINE OBSERVATIONS
  
STATION/POSITION TIME  TEMP    WIND        PRES    VSBY  WAVE
                       AIR SEA DIR/SP/G                  HT/PER
                 (UTC) (F)     (DEG/KT/KT) (MB)    (MI)  (FT/S)
BOSTON BUOY      0540   43 44   10/  8/ 10 1008.8S
BUZZARDS BAY     0500           50/ 18/ 19 1007.7S
NANTUCKET SOUND  0550      47                N/A           2/ 3
MASS BAY-STELLWA 0504                        N/A           4/ 6
ISLE OF SHOALS   0500   42      10/  8/  8 1008.6F
S OF BLOCK IS    0526      45                N/A           6/ 6
$$

......................KEY.........................
  SKY/WX - SKY CONDITION/PRESENT WEATHER
  TMP    - TEMPERATURE IN FAHRENHEIT
  DWPT   - DEWPOINT IN FAHRENHEIT
  RH     - RELATIVE HUMIDITY IN PERCENT
  WIND   - DIRECTION AND SPEED IN MPH
  PRES   - MEAN SEA LEVEL PRESSURE IN INCHES OF HG
  WCI    - WIND CHILL INDEX
  VSB    - VISIBILITY IN MILES
  HX     - HEAT INDEX
  TC     - TEMPERATURE IN CELSIUS
  VRB    - VARIABLE WIND DIRECTION
  N/A    - NOT AVAILABLE
  
      

Other recent Regional Weather Roundups

Fri Apr 16, 9:04am

Fri Apr 16, 8:04am

Fri Apr 16, 7:04am

Fri Apr 16, 6:04am

Fri Apr 16, 5:04am

Fri Apr 16, 4:04am

Fri Apr 16, 3:04am

Fri Apr 16, 2:04am

Fri Apr 16, 1:04am

Fri Apr 16, 12:04am

Thu Apr 15, 11:05pm

Thu Apr 15, 10:04pm

Thu Apr 15, 9:04pm

Thu Apr 15, 8:04pm

Thu Apr 15, 7:05pm

Thu Apr 15, 6:04pm

Thu Apr 15, 5:05pm

Thu Apr 15, 4:04pm

Thu Apr 15, 3:05pm

Thu Apr 15, 2:04pm

Thu Apr 15, 1:05pm

Thu Apr 15, 12:04pm

Thu Apr 15, 11:04am

Thu Apr 15, 10:05am

Thu Apr 15, 9:04am

Thu Apr 15, 8:04am

Thu Apr 15, 7:04am

Thu Apr 15, 6:04am

Thu Apr 15, 5:04am

Thu Apr 15, 4:04am

Thu Apr 15, 3:04am

Thu Apr 15, 2:04am

Thu Apr 15, 1:04am

Thu Apr 15, 12:04am

Wed Apr 14, 11:04pm

Wed Apr 14, 10:04pm

Wed Apr 14, 9:04pm

Wed Apr 14, 8:04pm

Wed Apr 14, 7:04pm

Wed Apr 14, 6:04pm

Wed Apr 14, 5:05pm

Wed Apr 14, 4:04pm

Wed Apr 14, 3:05pm

Wed Apr 14, 2:04pm

Wed Apr 14, 1:05pm

Wed Apr 14, 12:04pm

Wed Apr 14, 11:04am

Wed Apr 14, 10:04am

Wed Apr 14, 9:04am

Wed Apr 14, 8:04am

Wed Apr 14, 7:04am

Wed Apr 14, 6:04am

Wed Apr 14, 5:04am

Wed Apr 14, 4:04am

Wed Apr 14, 3:04am

Wed Apr 14, 2:04am

Wed Apr 14, 1:04am

Wed Apr 14, 12:04am

Tue Apr 13, 11:04pm

Tue Apr 13, 10:05pm

Tue Apr 13, 9:05pm

Tue Apr 13, 8:05pm

Tue Apr 13, 7:04pm

Tue Apr 13, 6:04pm

Tue Apr 13, 5:05pm

Tue Apr 13, 4:04pm

Tue Apr 13, 3:04pm

Tue Apr 13, 2:05pm

Tue Apr 13, 1:04pm

Tue Apr 13, 12:05pm

Tue Apr 13, 11:05am

Tue Apr 13, 10:04am

Tue Apr 13, 9:04am

Tue Apr 13, 8:04am

Tue Apr 13, 7:04am

Tue Apr 13, 6:04am

Tue Apr 13, 5:04am

Tue Apr 13, 4:04am

Tue Apr 13, 3:04am

Tue Apr 13, 2:04am

Tue Apr 13, 1:04am

Tue Apr 13, 12:05am

Mon Apr 12, 11:04pm

Mon Apr 12, 10:04pm

Mon Apr 12, 9:04pm

Mon Apr 12, 8:04pm

Mon Apr 12, 7:05pm

Mon Apr 12, 6:04pm

Mon Apr 12, 5:04pm

Mon Apr 12, 4:04pm

Mon Apr 12, 3:05pm

Mon Apr 12, 2:04pm

Mon Apr 12, 1:05pm

Mon Apr 12, 12:04pm

Mon Apr 12, 11:04am

Mon Apr 12, 10:04am

Mon Apr 12, 9:04am

Mon Apr 12, 8:04am

Mon Apr 12, 7:04am

Mon Apr 12, 6:04am

Mon Apr 12, 5:04am

Mon Apr 12, 4:04am

Mon Apr 12, 3:04am

Mon Apr 12, 1:05am

Mon Apr 12, 12:04am

Sun Apr 11, 11:04pm

Sun Apr 11, 10:04pm

Sun Apr 11, 9:04pm

Sun Apr 11, 8:04pm

Sun Apr 11, 7:04pm

Sun Apr 11, 6:05pm

Sun Apr 11, 5:05pm

Sun Apr 11, 4:04pm

Sun Apr 11, 3:05pm

Sun Apr 11, 2:05pm

Sun Apr 11, 1:05pm

Sun Apr 11, 12:04pm

Sun Apr 11, 11:05am

Sun Apr 11, 10:05am

Sun Apr 11, 9:04am

Sun Apr 11, 8:04am

Sun Apr 11, 7:04am

Sun Apr 11, 6:04am

Sun Apr 11, 5:04am

Sun Apr 11, 4:04am

Sun Apr 11, 3:04am

Sun Apr 11, 2:04am

Sun Apr 11, 1:05am

Sun Apr 11, 12:04am

Sat Apr 10, 11:05pm

Sat Apr 10, 10:04pm

Sat Apr 10, 9:04pm

Sat Apr 10, 8:04pm

Sat Apr 10, 7:05pm

Sat Apr 10, 6:04pm

Sat Apr 10, 5:04pm

Sat Apr 10, 4:04pm

Sat Apr 10, 3:04pm

Sat Apr 10, 2:05pm

Sat Apr 10, 1:04pm

Sat Apr 10, 12:04pm

Sat Apr 10, 11:04am

Sat Apr 10, 10:04am

Sat Apr 10, 9:04am

Sat Apr 10, 8:04am

Sat Apr 10, 7:04am

Sat Apr 10, 6:04am

Sat Apr 10, 5:04am

Sat Apr 10, 4:04am

Sat Apr 10, 3:04am

Sat Apr 10, 2:04am

Sat Apr 10, 1:05am

Sat Apr 10, 12:04am

Fri Apr 9, 11:04pm

Fri Apr 9, 10:05pm

Fri Apr 9, 9:04pm

Fri Apr 9, 8:05pm

Fri Apr 9, 7:05pm

Fri Apr 9, 6:04pm

Fri Apr 9, 5:04pm

Fri Apr 9, 4:05pm

Fri Apr 9, 3:05pm

Fri Apr 9, 2:04pm

Fri Apr 9, 1:04pm

Fri Apr 9, 12:04pm

Fri Apr 9, 11:05am

Fri Apr 9, 10:04am

Meta data:

ID: 0d2d8fdc-fb05-454d-a2a9-d119678b97b6
Link: https://api.weather.gov/products/0d2d8fdc-fb05-454d-a2a9-d119678b97b6